Погода в Юрге

Россия / Кемеровская область (Кузбасс)     55°42′48″N   84°56′01″E
темп.,
°C
ветер,
м/с
пор.,
м/с
влажн.,
%
обл.,
%
осадки,
мм/ч
давл.,
гПа
погр.,
м
25 февраля, чт
чт2501:00−13вюв3795100 3.4 1009279
04:00−16зюз8178192 0.2 1011536
07:00−23юз488945 0.2 1014127
10:00−21юз7129267 0.1 1016719
13:00−19юз7118258 0.1 10171034
16:00−19юз81283100 0.0 10181396
19:00−20юз61487100 0.1 10201393
22:00−21юз31197100 0.1 1020788
26 февраля, пт
пт2601:00−21ююз41097100 0.1 1020683
04:00−22юз51194100 0.1 1021788
07:00−22юз61193100 0.2 1023914
10:00−22юз81390100 0.1 10251057
13:00−22юз81291100 0.3 10271125
16:00−23зюз81289100 0.2 10291087
19:00−25зюз51291100 0.3 1032760
22:00−27зюз41294100 0.0 1034530
27 февраля, сб
сб2701:00−26зюз41193100 0.0 1034607
04:00−26юз4995100 0.1 1035518
07:00−26юз4996100 0.1 1036487
10:00−25юз5893100 0.1 1036600
13:00−23юз5892100 0.2 1037644
16:00−22юз5791100 0.1 1037635
19:00−24юз3795100 0.1 1037188
22:00−27юз349688 0.0 103857
28 февраля, вс
вс2801:00−29юз239774 0.0 103920
04:00−30ююз239886 0.0 103919
07:00−31ю239669 0.0 104019
10:00−28ю24933 0.0 1040117
13:00−22ююв34881 0.0 1039288
16:00−18ююв368912 0.0 1037384
19:00−21вюв459537 0.0 103581
22:00−19юв489499 0.0 1033149
1 марта, пн
пн101:00−15юв51190100 0.0 1029283
04:00−12юв61394100 0.4 1025449
07:00−10ююв61293100 1.3 1022496
10:00−7ю61194100 0.7 1018818
13:00−6ю6994100 1.8 1015750
16:00−4ю61195100 1.8 1012722
19:00−2юз81593100 3.3 1011843
22:000зюз81496100 0.9 1011834